Time,TemperatureF,DewpointF,PressureIn,WindDirection,WindDirectionDegrees,WindSpeedMPH,WindSpeedGustMPH,Humidity,HourlyPrecipIn,Conditions,Clouds,dailyrainin,SoftwareType,DateUTC
2013-03-01 00:12:00,49.0,-99.9,30.08,NNW,330,21.0,-999.0,-999,-99.99,,,-99.99,,2013-03-01 06:12:00,
2013-03-01 00:22:00,49.0,-99.9,30.08,NNW,330,21.0,-999.0,-999,-99.99,,,-99.99,,2013-03-01 06:22:00,
2013-03-01 00:30:00,48.0,-99.9,30.08,NNW,330,16.0,-999.0,-999,-99.99,,,-99.99,,2013-03-01 06:30:00,
2013-03-01 01:00:00,48.0,-99.9,30.08,NNW,340,17.0,-999.0,-999,-99.99,,,-99.99,,2013-03-01 07:00:00,
2013-03-01 01:12:00,48.0,-99.9,30.08,NNW,330,16.0,-999.0,-999,-99.99,,,-99.99,,2013-03-01 07:12:00,
2013-03-01 01:22:00,48.0,-99.9,30.08,NNW,330,16.0,-999.0,-999,-99.99,,,-99.99,,2013-03-01 07:22:00,
2013-03-01 01:30:00,47.0,-99.9,30.08,NNW,330,16.0,-999.0,-999,-99.99,,,-99.99,,2013-03-01 07:30:00,
2013-03-01 01:43:00,48.0,-99.9,30.08,NNW,340,17.0,-999.0,-999,-99.99,,,-99.99,,2013-03-01 07:43:00,
2013-03-01 01:52:00,48.0,-99.9,30.08,NNW,340,17.0,-999.0,-999,-99.99,,,-99.99,,2013-03-01 07:52:00,
2013-03-01 02:00:00,47.0,-99.9,30.08,NNW,340,15.0,-999.0,-999,-99.99,,,-99.99,,2013-03-01 08:00:00,
2013-03-01 02:12:00,47.0,-99.9,30.08,NNW,330,16.0,-999.0,-999,-99.99,,,-99.99,,2013-03-01 08:12:00,
2013-03-01 02:22:00,47.0,-99.9,30.08,NNW,330,16.0,-999.0,-999,-99.99,,,-99.99,,2013-03-01 08:22:00,
2013-03-01 02:30:00,47.0,-99.9,30.07,NNW,340,15.0,-999.0,-999,-99.99,,,-99.99,,2013-03-01 08:30:00,
2013-03-01 02:43:00,47.0,-99.9,30.08,NNW,340,15.0,-999.0,-999,-99.99,,,-99.99,,2013-03-01 08:43:00,
2013-03-01 02:53:00,47.0,-99.9,30.08,NNW,340,15.0,-999.0,-999,-99.99,,,-99.99,,2013-03-01 08:53:00,
2013-03-01 03:00:00,46.0,-99.9,30.06,NNW,340,15.0,-999.0,-999,-99.99,,,-99.99,,2013-03-01 09:00:00,
2013-03-01 03:12:00,47.0,-99.9,30.07,NNW,340,15.0,-999.0,-999,-99.99,,,-99.99,,2013-03-01 09:12:00,
2013-03-01 03:22:00,47.0,-99.9,30.07,NNW,340,15.0,-999.0,-999,-99.99,,,-99.99,,2013-03-01 09:22:00,
2013-03-01 03:30:00,46.0,-99.9,30.06,NNW,340,15.0,-999.0,-999,-99.99,,,-99.99,,2013-03-01 09:30:00,
2013-03-01 03:53:00,46.0,-99.9,30.06,NNW,340,15.0,-999.0,-999,-99.99,,,-99.99,,2013-03-01 09:53:00,
2013-03-01 04:00:00,46.0,-99.9,30.07,North,360,13.0,-999.0,-999,-99.99,,,-99.99,,2013-03-01 10:00:00,
2013-03-01 04:12:00,46.0,-99.9,30.06,NNW,340,15.0,-999.0,-999,-99.99,,,-99.99,,2013-03-01 10:12:00,
2013-03-01 04:22:00,46.0,-99.9,30.06,NNW,340,15.0,-999.0,-999,-99.99,,,-99.99,,2013-03-01 10:22:00,
2013-03-01 04:30:00,46.0,-99.9,30.07,North,360,11.0,-999.0,-999,-99.99,,,-99.99,,2013-03-01 10:30:00,
2013-03-01 04:53:00,46.0,-99.9,30.07,North,360,13.0,-999.0,-999,-99.99,,,-99.99,,2013-03-01 10:53:00,
2013-03-01 05:00:00,45.0,-99.9,30.08,North,10,13.0,-999.0,-999,-99.99,,,-99.99,,2013-03-01 11:00:00,
2013-03-01 05:12:00,46.0,-99.9,30.07,North,360,11.0,-999.0,-999,-99.99,,,-99.99,,2013-03-01 11:12:00,
2013-03-01 05:23:00,46.0,-99.9,30.07,North,360,11.0,-999.0,-999,-99.99,,,-99.99,,2013-03-01 11:23:00,
2013-03-01 05:30:00,45.0,-99.9,30.09,North,10,9.0,-999.0,-999,-99.99,,,-99.99,,2013-03-01 11:30:00,
2013-03-01 05:42:00,45.0,-99.9,30.08,North,10,13.0,-999.0,-999,-99.99,,,-99.99,,2013-03-01 11:42:00,
2013-03-01 05:53:00,45.0,-99.9,30.08,North,10,13.0,-999.0,-999,-99.99,,,-99.99,,2013-03-01 11:53:00,
2013-03-01 06:00:00,45.0,-99.9,30.10,North,10,11.0,-999.0,-999,-99.99,,,-99.99,,2013-03-01 12:00:00,
2013-03-01 06:22:00,45.0,-99.9,30.09,North,10,9.0,-999.0,-999,-99.99,,,-99.99,,2013-03-01 12:22:00,
2013-03-01 06:30:00,45.0,-99.9,30.10,North,360,10.0,-999.0,-999,-99.99,,,-99.99,,2013-03-01 12:30:00,
2013-03-01 06:52:00,45.0,-99.9,30.10,North,10,11.0,-999.0,-999,-99.99,,,-99.99,,2013-03-01 12:52:00,
2013-03-01 07:00:00,45.0,-99.9,30.10,North,350,9.0,-999.0,-999,-99.99,,,-99.99,,2013-03-01 13:00:00,
2013-03-01 07:12:00,45.0,-99.9,30.10,North,360,10.0,-999.0,-999,-99.99,,,-99.99,,2013-03-01 13:12:00,
2013-03-01 07:22:00,45.0,-99.9,30.10,North,360,10.0,-999.0,-999,-99.99,,,-99.99,,2013-03-01 13:22:00,
2013-03-01 07:30:00,45.0,-99.9,30.11,North,350,8.0,-999.0,-999,-99.99,,,-99.99,,2013-03-01 13:30:00,
2013-03-01 07:52:00,45.0,-99.9,30.10,North,350,9.0,-999.0,-999,-99.99,,,-99.99,,2013-03-01 13:52:00,
2013-03-01 08:00:00,46.0,-99.9,30.12,NNW,340,7.0,-999.0,-999,-99.99,,,-99.99,,2013-03-01 14:00:00,
2013-03-01 08:12:00,45.0,-99.9,30.11,North,350,8.0,-999.0,-999,-99.99,,,-99.99,,2013-03-01 14:12:00,
2013-03-01 08:22:00,45.0,-99.9,30.11,North,350,8.0,-999.0,-999,-99.99,,,-99.99,,2013-03-01 14:22:00,
2013-03-01 08:30:00,47.0,-99.9,30.12,North,350,7.0,-999.0,-999,-99.99,,,-99.99,,2013-03-01 14:30:00,
2013-03-01 08:52:00,46.0,-99.9,30.12,NNW,340,7.0,-999.0,-999,-99.99,,,-99.99,,2013-03-01 14:52:00,
2013-03-01 09:00:00,47.0,-99.9,30.12,North,350,6.0,-999.0,-999,-99.99,,,-99.99,,2013-03-01 15:00:00,
2013-03-01 09:21:00,47.0,-99.9,30.12,North,350,7.0,-999.0,-999,-99.99,,,-99.99,,2013-03-01 15:21:00,
2013-03-01 09:30:00,48.0,-99.9,30.12,North,350,5.0,-999.0,-999,-99.99,,,-99.99,,2013-03-01 15:30:00,
2013-03-01 09:52:00,47.0,-99.9,30.12,North,350,6.0,-999.0,-999,-99.99,,,-99.99,,2013-03-01 15:52:00,
2013-03-01 10:00:00,50.0,-99.9,30.11,North,360,3.0,-999.0,-999,-99.99,,,-99.99,,2013-03-01 16:00:00,
2013-03-01 10:22:00,48.0,-99.9,30.12,North,350,5.0,-999.0,-999,-99.99,,,-99.99,,2013-03-01 16:22:00,
2013-03-01 10:30:00,51.0,-99.9,30.11,North,350,5.0,-999.0,-999,-99.99,,,-99.99,,2013-03-01 16:30:00,
2013-03-01 10:42:00,50.0,-99.9,30.11,North,360,3.0,-999.0,-999,-99.99,,,-99.99,,2013-03-01 16:42:00,
2013-03-01 10:52:00,50.0,-99.9,30.11,North,360,3.0,-999.0,-999,-99.99,,,-99.99,,2013-03-01 16:52:00,
2013-03-01 11:00:00,52.0,-99.9,30.10,NNE,30,5.0,-999.0,-999,-99.99,,,-99.99,,2013-03-01 17:00:00,
2013-03-01 11:11:00,51.0,-99.9,30.11,North,350,5.0,-999.0,-999,-99.99,,,-99.99,,2013-03-01 17:11:00,
2013-03-01 11:21:00,51.0,-99.9,30.11,North,350,5.0,-999.0,-999,-99.99,,,-99.99,,2013-03-01 17:21:00,
2013-03-01 11:30:00,49.0,-99.9,30.08,ENE,60,2.0,-999.0,-999,-99.99,,,-99.99,,2013-03-01 17:30:00,
2013-03-01 11:42:00,52.0,-99.9,30.10,NNE,30,5.0,-999.0,-999,-99.99,,,-99.99,,2013-03-01 17:42:00,
2013-03-01 11:52:00,52.0,-99.9,30.10,NNE,30,5.0,-999.0,-999,-99.99,,,-99.99,,2013-03-01 17:52:00,
2013-03-01 12:00:00,47.0,-99.9,30.07,ESE,120,5.0,-999.0,-999,-99.99,,,-99.99,,2013-03-01 18:00:00,
2013-03-01 12:22:00,49.0,-99.9,30.08,ENE,60,2.0,-999.0,-999,-99.99,,,-99.99,,2013-03-01 18:22:00,
2013-03-01 12:30:00,48.0,-99.9,30.07,SSE,150,7.0,-999.0,-999,-99.99,,,-99.99,,2013-03-01 18:30:00,
2013-03-01 12:42:00,47.0,-99.9,30.07,ESE,120,5.0,-999.0,-999,-99.99,,,-99.99,,2013-03-01 18:42:00,
2013-03-01 12:52:00,47.0,-99.9,30.07,ESE,120,5.0,-999.0,-999,-99.99,,,-99.99,,2013-03-01 18:52:00,
2013-03-01 13:00:00,49.0,-99.9,30.05,South,190,10.0,-999.0,-999,-99.99,,,-99.99,,2013-03-01 19:00:00,
2013-03-01 13:11:00,48.0,-99.9,30.07,SSE,150,7.0,-999.0,-999,-99.99,,,-99.99,,2013-03-01 19:11:00,
2013-03-01 13:22:00,48.0,-99.9,30.07,SSE,150,7.0,-999.0,-999,-99.99,,,-99.99,,2013-03-01 19:22:00,
2013-03-01 13:30:00,50.0,-99.9,30.04,South,170,13.0,-999.0,-999,-99.99,,,-99.99,,2013-03-01 19:30:00,
2013-03-01 13:42:00,49.0,-99.9,30.05,South,190,10.0,-999.0,-999,-99.99,,,-99.99,,2013-03-01 19:42:00,
2013-03-01 13:52:00,49.0,-99.9,30.05,South,190,10.0,-999.0,-999,-99.99,,,-99.99,,2013-03-01 19:52:00,
2013-03-01 14:00:00,51.0,-99.9,30.03,South,180,13.0,-999.0,-999,-99.99,,,-99.99,,2013-03-01 20:00:00,
2013-03-01 14:22:00,50.0,-99.9,30.04,South,170,13.0,-999.0,-999,-99.99,,,-99.99,,2013-03-01 20:22:00,
2013-03-01 14:30:00,52.0,-99.9,30.02,South,180,15.0,-999.0,-999,-99.99,,,-99.99,,2013-03-01 20:30:00,
2013-03-01 14:52:00,51.0,-99.9,30.03,South,180,13.0,-999.0,-999,-99.99,,,-99.99,,2013-03-01 20:52:00,
2013-03-01 15:00:00,52.0,-99.9,30.00,South,190,15.0,-999.0,-999,-99.99,,,-99.99,,2013-03-01 21:00:00,
2013-03-01 15:22:00,52.0,-99.9,30.02,South,180,15.0,-999.0,-999,-99.99,,,-99.99,,2013-03-01 21:22:00,
2013-03-01 15:30:00,53.0,-99.9,30.00,South,190,15.0,-999.0,-999,-99.99,,,-99.99,,2013-03-01 21:30:00,
2013-03-01 15:52:00,52.0,-99.9,30.00,South,190,15.0,-999.0,-999,-99.99,,,-99.99,,2013-03-01 21:52:00,
2013-03-01 16:00:00,54.0,-99.9,30.00,SW,220,15.0,-999.0,-999,-99.99,,,-99.99,,2013-03-01 22:00:00,
2013-03-01 16:22:00,53.0,-99.9,30.00,South,190,15.0,-999.0,-999,-99.99,,,-99.99,,2013-03-01 22:22:00,
2013-03-01 16:30:00,54.0,-99.9,30.00,SW,230,18.0,-999.0,-999,-99.99,,,-99.99,,2013-03-01 22:30:00,
2013-03-01 16:52:00,54.0,-99.9,30.00,SW,220,15.0,-999.0,-999,-99.99,,,-99.99,,2013-03-01 22:52:00,
2013-03-01 17:00:00,54.0,-99.9,30.00,SW,230,15.0,-999.0,-999,-99.99,,,-99.99,,2013-03-01 23:00:00,
2013-03-01 17:11:00,54.0,-99.9,30.00,SW,230,18.0,-999.0,-999,-99.99,,,-99.99,,2013-03-01 23:11:00,
2013-03-01 17:21:00,54.0,-99.9,30.00,SW,230,18.0,-999.0,-999,-99.99,,,-99.99,,2013-03-01 23:21:00,
2013-03-01 17:30:00,55.0,-99.9,30.01,WSW,250,13.0,-999.0,-999,-99.99,,,-99.99,,2013-03-01 23:30:00,
2013-03-01 17:52:00,54.0,-99.9,30.00,SW,230,15.0,-999.0,-999,-99.99,,,-99.99,,2013-03-01 23:52:00,
2013-03-01 18:00:00,55.0,-99.9,30.02,NW,320,15.0,-999.0,-999,-99.99,,,-99.99,,2013-03-02 00:00:00,
2013-03-01 18:12:00,55.0,-99.9,30.01,WSW,250,13.0,-999.0,-999,-99.99,,,-99.99,,2013-03-02 00:12:00,
2013-03-01 18:22:00,55.0,-99.9,30.01,WSW,250,13.0,-999.0,-999,-99.99,,,-99.99,,2013-03-02 00:22:00,
2013-03-01 18:30:00,55.0,-99.9,30.03,NW,320,18.0,-999.0,-999,-99.99,,,-99.99,,2013-03-02 00:30:00,
2013-03-01 18:52:00,55.0,-99.9,30.02,NW,320,15.0,-999.0,-999,-99.99,,,-99.99,,2013-03-02 00:52:00,
2013-03-01 19:00:00,54.0,-99.9,30.04,NW,310,17.0,-999.0,-999,-99.99,,,-99.99,,2013-03-02 01:00:00,
2013-03-01 19:11:00,55.0,-99.9,30.03,NW,320,18.0,-999.0,-999,-99.99,,,-99.99,,2013-03-02 01:11:00,
2013-03-01 19:21:00,55.0,-99.9,30.03,NW,320,18.0,-999.0,-999,-99.99,,,-99.99,,2013-03-02 01:21:00,
2013-03-01 19:30:00,54.0,-99.9,30.05,NW,320,20.0,-999.0,-999,-99.99,,,-99.99,,2013-03-02 01:30:00,
2013-03-01 19:42:00,54.0,-99.9,30.04,NW,310,17.0,-999.0,-999,-99.99,,,-99.99,,2013-03-02 01:42:00,
2013-03-01 19:52:00,54.0,-99.9,30.04,NW,310,17.0,-999.0,-999,-99.99,,,-99.99,,2013-03-02 01:52:00,
2013-03-01 20:00:00,53.0,-99.9,30.07,NNW,330,23.0,-999.0,-999,-99.99,,,-99.99,,2013-03-02 02:00:00,
2013-03-01 20:11:00,54.0,-99.9,30.05,NW,320,20.0,-999.0,-999,-99.99,,,-99.99,,2013-03-02 02:11:00,
2013-03-01 20:22:00,54.0,-99.9,30.05,NW,320,20.0,-999.0,-999,-99.99,,,-99.99,,2013-03-02 02:22:00,
2013-03-01 20:30:00,51.0,-99.9,30.08,NNW,330,24.0,-999.0,-999,-99.99,,,-99.99,,2013-03-02 02:30:00,
2013-03-01 20:42:00,53.0,-99.9,30.07,NNW,330,23.0,-999.0,-999,-99.99,,,-99.99,,2013-03-02 02:42:00,
2013-03-01 20:52:00,53.0,-99.9,30.07,NNW,330,23.0,-999.0,-999,-99.99,,,-99.99,,2013-03-02 02:52:00,
2013-03-01 21:00:00,50.0,-99.9,30.10,NNW,330,26.0,-999.0,-999,-99.99,,,-99.99,,2013-03-02 03:00:00,
2013-03-01 21:11:00,51.0,-99.9,30.08,NNW,330,24.0,-999.0,-999,-99.99,,,-99.99,,2013-03-02 03:11:00,
2013-03-01 21:22:00,51.0,-99.9,30.08,NNW,330,24.0,-999.0,-999,-99.99,,,-99.99,,2013-03-02 03:22:00,
2013-03-01 21:30:00,49.0,-99.9,30.11,NNW,330,26.0,-999.0,-999,-99.99,,,-99.99,,2013-03-02 03:30:00,
2013-03-01 21:42:00,50.0,-99.9,30.10,NNW,330,26.0,-999.0,-999,-99.99,,,-99.99,,2013-03-02 03:42:00,
2013-03-01 21:53:00,50.0,-99.9,30.10,NNW,330,26.0,-999.0,-999,-99.99,,,-99.99,,2013-03-02 03:53:00,
2013-03-01 22:00:00,47.0,-99.9,30.13,NNW,330,29.0,-999.0,-999,-99.99,,,-99.99,,2013-03-02 04:00:00,
2013-03-01 22:12:00,49.0,-99.9,30.11,NNW,330,26.0,-999.0,-999,-99.99,,,-99.99,,2013-03-02 04:12:00,
2013-03-01 22:22:00,49.0,-99.9,30.11,NNW,330,26.0,-999.0,-999,-99.99,,,-99.99,,2013-03-02 04:22:00,
2013-03-01 22:30:00,45.0,-99.9,30.13,NNW,340,28.0,-999.0,-999,-99.99,,,-99.99,,2013-03-02 04:30:00,
2013-03-01 22:42:00,47.0,-99.9,30.13,NNW,330,29.0,-999.0,-999,-99.99,,,-99.99,,2013-03-02 04:42:00,
2013-03-01 22:52:00,47.0,-99.9,30.13,NNW,330,29.0,-999.0,-999,-99.99,,,-99.99,,2013-03-02 04:52:00,
2013-03-01 23:00:00,45.0,-99.9,30.14,NNW,340,21.0,-999.0,-999,-99.99,,,-99.99,,2013-03-02 05:00:00,
2013-03-01 23:12:00,45.0,-99.9,30.13,NNW,340,28.0,-999.0,-999,-99.99,,,-99.99,,2013-03-02 05:12:00,
2013-03-01 23:23:00,45.0,-99.9,30.13,NNW,340,28.0,-999.0,-999,-99.99,,,-99.99,,2013-03-02 05:23:00,
2013-03-01 23:30:00,44.0,-99.9,30.13,NNW,340,21.0,-999.0,-999,-99.99,,,-99.99,,2013-03-02 05:30:00,
2013-03-01 23:42:00,45.0,-99.9,30.14,NNW,340,21.0,-999.0,-999,-99.99,,,-99.99,,2013-03-02 05:42:00,
2013-03-01 23:52:00,45.0,-99.9,30.14,NNW,340,21.0,-999.0,-999,-99.99,,,-99.99,,2013-03-02 05:52:00,